Find Local Weather

World > North America > United States > Ohio

Felicity, Ohio Regional Weather

Lat: 38.84N, Lon: 84.1W
Wx Zone: OHZ078
Feedback

Felicity, OH Regional Weather

Expires:201905192100;;131054
ASUS41 KCLE 192012
RWRCLE
OHIO REGIONAL WEATHER ROUNDUP
NATIONAL WEATHER SERVICE WILMINGTON, OH
400 PM EDT SUN MAY 19 2019

NOTE: "FAIR" INDICATES FEW OR NO CLOUDS BELOW 12,000 FEET WITH NO
SIGNIFICANT WEATHER AND/OR OBSTRUCTIONS TO VISIBILITY.


OHZ042-051>053-060>062-070>072-077>081-192100-
  SOUTHWEST OHIO
  
CITY           SKY/WX    TMP DP  RH WIND       PRES   REMARKS
CINC-COVINGTON LGT RAIN  69  62  78 SW17G30   29.84R                  
CINC-LUNKEN    LGT RAIN  77  58  51 SW21G37   29.83R                  
HAMILTON       CLOUDY    73  61  65 SW13G33   29.83R                  
DAYTON         RAIN      70  61  73 SW18G31   29.81S                  
WRIGHT-PAT AFB LGT RAIN  75  59  56 S28G37    29.79F                  
DAYTON GENERAL LGT RAIN  76  58  53 SW18G30   29.81S                  
WILMINGTON     LGT RAIN  78  61  55 SW16G36   29.81F                  
$$


SKY/WX - Weather  TMP - Temperature  DP - Dew Point  RH - Relative Humidity
WIND - Wind Direction/Speed PRES - Barometric Pressure VSB - Visibility
WCI - Wind Chill Index E13G22 Wind - East Wind 13 mph/Gusts of 22 mph